Flag Weather past 2 weeks in Regensdorf, Zurich, Switzerland

Now
42 °F

Quite cool.


Feels Like: 39 °F
Forecast: 42 / 52 °F
Wind: 5 mph from West

Location: Zurich-Kloten

Current Time: Nov 24, 2014 at 9:29:26 PM

Latest Report: Nov 24, 2014 at 8:00 PM


Visibility: N/A

Pressure: 30.25 "Hg

Humidity: 97%

Dew point: 41 °F

Location of RegensdorfLocation

Historic Weather in Regensdorf — Graph

°F

Regensdorf temperature yesterday

Maximum temperature yesterday: 42 °F (at 2:00 PM)
Minimum temperature yesterday: 37 °F (at 8:00 AM)
Average temperature yesterday: 40 °F

Past Weeks' High & Low Weather Summary

 TemperatureHumidityPressure
High53 °F (Nov 15, 12:00 PM)100% (Nov 10, 5:00 AM)30.32 "Hg (Nov 10, 5:00 AM)
Low33 °F (Nov 20, 1:00 AM)62% (Nov 19, 3:00 PM)29.57 "Hg (Nov 15, 9:00 PM)
Average44 °F92%29.95 "Hg
* Reported Nov 9 8:00 PM — Nov 24 8:00 PM, Regensdorf, Weather by CustomWeather, © 2014

Note: Actual official high and low records may vary slightly from our data, if they occured in-between our weather recording intervals... More about our weather records

Advertising

Regensdorf weather history for previous 24 hours

 ConditionsComfort  
Time TempWeatherWind HumidityBarometerVisibility
8:00 PM
Nov 24
42 °FQuite cool.5 mph97%30.25 "HgN/A
7:00 PM43 °FFog.6 mph97%30.24 "Hg4 mi
6:00 PM43 °FQuite cool.6 mph96%30.23 "HgN/A
5:00 PM45 °FCool.6 mph93%30.22 "HgN/A
4:00 PM49 °FFog.5 mph91%30.20 "Hg6 mi
3:00 PM50 °FCool.5 mph90%30.21 "HgN/A
2:00 PM49 °FCool.3 mph88%30.22 "HgN/A
1:00 PM51 °FFog.2 mph82%30.22 "Hg4 mi
12:00 PM48 °FCool.2 mph87%30.24 "HgN/A
11:00 AM43 °FQuite cool.2 mph99%30.26 "HgN/A
10:00 AM42 °FFog.2 mph99%30.24 "Hg0 mi
9:00 AM41 °FQuite cool.1 mph99%30.24 "HgN/A
8:00 AM40 °FQuite cool.2 mph98%30.24 "HgN/A
7:00 AM41 °FFog.7 mph97%30.22 "Hg1 mi
6:00 AM41 °FQuite cool.3 mph100%30.23 "HgN/A
5:00 AM41 °FQuite cool.3 mph98%30.22 "HgN/A
4:00 AM41 °FLight rain. Low clouds.5 mph98%30.22 "Hg1 mi
3:00 AM41 °FQuite cool.2 mph97%30.24 "HgN/A
2:00 AM41 °FQuite cool.2 mph99%30.23 "HgN/A
1:00 AM41 °FFog.1 mph98%30.24 "Hg1 mi
12:00 AM41 °FQuite cool.2 mph98%30.24 "HgN/A
11:00 PM
Nov 23
41 °FQuite cool.2 mph97%30.23 "HgN/A
10:00 PM41 °FFog.1 mph97%30.23 "Hg1 mi
9:00 PM41 °FQuite cool.1 mph97%30.23 "HgN/A
Weather by CustomWeather, © 2014

See weather overviewHow to use our weather pages